DAWDF EDDE-LOWS

Flight info

Callsign DAWDF
Flight time 0h 38m
Altitude 31000
Route NEVKO Q244 TABAT L602 SODRO T703 ARBAX T108 OSTES T700 BADIT BADIT2R
Aircraft CL60/M-SBDE1E2E3FGHIJ1J4J5J7M3RWXYZ/LB1V1D1

Departure

Time 2026-04-22 16:52
Airport Erfurt-Weimar Airport (EDDE)

Arrival

Time 2026-04-22 17:30
Airport Salzburg Airport (LOWS)
Time Latitude Longitude Altitude Speed Heading
2026-04-22 16:15 50.97549 10.96299 1043 ft 0 kts 277°
2026-04-22 16:47 50.97550 10.96293 1043 ft 5 kts 277°
2026-04-22 16:47 50.97574 10.96230 1043 ft 9 kts 352°
2026-04-22 16:47 50.97651 10.96246 1043 ft 12 kts
2026-04-22 16:48 50.97732 10.96216 1043 ft 14 kts 283°
2026-04-22 16:48 50.97747 10.96045 1043 ft 16 kts 278°
2026-04-22 16:48 50.97764 10.95851 1043 ft 19 kts 278°
2026-04-22 16:48 50.97784 10.95630 1043 ft 21 kts 275°
2026-04-22 16:49 50.97803 10.95390 1043 ft 22 kts 279°
2026-04-22 16:49 50.97822 10.95130 1043 ft 24 kts 278°
2026-04-22 16:49 50.97870 10.94868 1043 ft 25 kts 302°
2026-04-22 16:49 50.97916 10.94593 1043 ft 26 kts 275°
2026-04-22 16:50 50.97937 10.94299 1043 ft 26 kts 279°
2026-04-22 16:50 50.97973 10.94132 1043 ft 16 kts 321°
2026-04-22 16:50 50.98072 10.94034 1043 ft 3 kts 345°
2026-04-22 16:50 50.98101 10.94030 1043 ft 5 kts 357°
2026-04-22 16:51 50.98127 10.94062 1043 ft 6 kts 100°
2026-04-22 16:51 50.98114 10.94177 1043 ft 32 kts 98°
2026-04-22 16:51 50.98041 10.95066 1043 ft 121 kts 97°
2026-04-22 16:51 50.97914 10.96652 1259 ft 157 kts 94°
2026-04-22 16:52 50.97787 10.98397 1853 ft 167 kts 94°
2026-04-22 16:52 50.97583 11.00281 2482 ft 176 kts 99°
2026-04-22 16:52 50.97343 11.02048 3471 ft 161 kts 95°
2026-04-22 16:52 50.97247 11.03837 4072 ft 173 kts 92°
2026-04-22 16:53 50.97042 11.05907 4328 ft 204 kts 96°
2026-04-22 16:53 50.96784 11.08266 4585 ft 233 kts 96°
2026-04-22 16:53 50.96501 11.10915 4886 ft 254 kts 96°
2026-04-22 16:53 50.96204 11.13711 5378 ft 260 kts 96°
2026-04-22 16:54 50.95901 11.16586 5972 ft 262 kts 96°
2026-04-22 16:54 50.95599 11.19442 6599 ft 265 kts 96°
2026-04-22 16:54 50.95021 11.22222 7144 ft 277 kts 115°
2026-04-22 16:54 50.93760 11.24574 7304 ft 286 kts 142°
2026-04-22 16:55 50.91912 11.26102 7781 ft 313 kts 152°
2026-04-22 16:55 50.90007 11.27521 9424 ft 305 kts 151°
2026-04-22 16:55 50.88124 11.28939 10946 ft 303 kts 150°
2026-04-22 16:55 50.86186 11.30406 11749 ft 324 kts 150°
2026-04-22 16:56 50.84112 11.31973 12685 ft 337 kts 150°
2026-04-22 16:56 50.81972 11.33585 13706 ft 346 kts 150°
2026-04-22 16:56 50.79803 11.35216 14773 ft 351 kts 150°
2026-04-22 16:56 50.77579 11.36887 15850 ft 356 kts 150°
2026-04-22 16:57 50.75354 11.38557 16851 ft 360 kts 150°
2026-04-22 16:57 50.73094 11.40251 17807 ft 364 kts 150°
2026-04-22 16:57 50.70794 11.41974 18698 ft 369 kts 150°
2026-04-22 16:57 50.68470 11.43713 19605 ft 373 kts 150°
2026-04-22 16:58 50.66912 11.44878 20195 ft 376 kts 150°
2026-04-22 16:58 50.63748 11.47224 21349 ft 380 kts 150°
2026-04-22 16:58 50.61342 11.49000 22144 ft 384 kts 150°
2026-04-22 16:58 50.58884 11.50812 22930 ft 388 kts 150°
2026-04-22 16:59 50.56437 11.52609 23646 ft 393 kts 150°
2026-04-22 16:59 50.53920 11.54450 24383 ft 397 kts 150°
2026-04-22 16:59 50.51418 11.56274 25073 ft 400 kts 150°
2026-04-22 16:59 50.48873 11.58127 25817 ft 402 kts 150°
2026-04-22 17:00 50.46315 11.59980 26470 ft 405 kts 150°
2026-04-22 17:00 50.41142 11.63704 27671 ft 410 kts 150°
2026-04-22 17:00 50.38519 11.65587 28194 ft 414 kts 150°
2026-04-22 17:01 50.35898 11.67466 28688 ft 418 kts 150°
2026-04-22 17:01 50.33226 11.69377 29188 ft 421 kts 150°
2026-04-22 17:01 50.30582 11.71260 29644 ft 424 kts 150°
2026-04-22 17:01 50.27874 11.73184 30152 ft 426 kts 150°
2026-04-22 17:02 50.25181 11.75096 30607 ft 428 kts 150°
2026-04-22 17:02 50.22471 11.77014 31045 ft 430 kts 150°
2026-04-22 17:02 50.19727 11.78950 31266 ft 435 kts 150°
2026-04-22 17:02 50.16945 11.80920 31290 ft 441 kts 150°
2026-04-22 17:03 50.11360 11.84875 31293 ft 438 kts 150°
2026-04-22 17:03 50.05862 11.88751 31273 ft 435 kts 150°
2026-04-22 17:04 50.00320 11.92643 31262 ft 438 kts 150°
2026-04-22 17:04 49.94652 11.96654 31262 ft 457 kts 150°
2026-04-22 17:05 49.88765 12.00730 31264 ft 470 kts 154°
2026-04-22 17:05 49.82615 12.04291 31269 ft 470 kts 154°
2026-04-22 17:06 49.76522 12.07809 31275 ft 468 kts 154°
2026-04-22 17:06 49.70445 12.11318 31269 ft 468 kts 155°
2026-04-22 17:07 49.64445 12.14777 31266 ft 470 kts 155°
2026-04-22 17:07 49.59848 12.17422 31264 ft 470 kts 155°
2026-04-22 17:08 49.53707 12.20951 31260 ft 471 kts 155°
2026-04-22 17:08 49.47594 12.24456 31262 ft 470 kts 155°
2026-04-22 17:09 49.41467 12.27961 31266 ft 471 kts 154°
2026-04-22 17:09 49.35302 12.31480 31267 ft 472 kts 155°
2026-04-22 17:10 49.29140 12.34988 31267 ft 473 kts 155°
2026-04-22 17:10 49.22973 12.38490 31191 ft 474 kts 154°
2026-04-22 17:11 49.19897 12.40234 30673 ft 471 kts 155°
2026-04-22 17:11 49.16840 12.41962 30085 ft 466 kts 155°
2026-04-22 17:11 49.13805 12.43677 29498 ft 464 kts 155°
2026-04-22 17:11 49.10782 12.45383 28913 ft 461 kts 155°
2026-04-22 17:12 49.07797 12.47065 28317 ft 456 kts 155°
2026-04-22 17:12 49.04855 12.48721 27723 ft 451 kts 155°
2026-04-22 17:12 49.01932 12.50365 27120 ft 447 kts 155°
2026-04-22 17:12 48.99030 12.51994 26537 ft 443 kts 155°
2026-04-22 17:13 48.96163 12.53603 25952 ft 439 kts 155°
2026-04-22 17:13 48.93299 12.55208 25362 ft 436 kts 155°
2026-04-22 17:13 48.90472 12.56791 24788 ft 433 kts 155°
2026-04-22 17:13 48.87622 12.58384 24208 ft 430 kts 155°
2026-04-22 17:14 48.84824 12.59947 23642 ft 427 kts 155°
2026-04-22 17:14 48.82049 12.61495 23081 ft 424 kts 155°
2026-04-22 17:14 48.79306 12.63023 22521 ft 421 kts 155°
2026-04-22 17:14 48.76561 12.64552 21966 ft 418 kts 155°
2026-04-22 17:15 48.74754 12.65556 21597 ft 416 kts 156°
2026-04-22 17:15 48.71035 12.67598 20844 ft 412 kts 159°
2026-04-22 17:15 48.68200 12.68560 20284 ft 411 kts 167°
2026-04-22 17:15 48.65404 12.69269 19741 ft 406 kts 167°
2026-04-22 17:16 48.62627 12.69983 19202 ft 401 kts 167°
2026-04-22 17:16 48.59904 12.70653 18678 ft 396 kts 169°
2026-04-22 17:16 48.57170 12.71240 18148 ft 391 kts 169°
2026-04-22 17:16 48.54487 12.71811 17630 ft 386 kts 169°
2026-04-22 17:17 48.51864 12.72370 17124 ft 380 kts 169°
2026-04-22 17:17 48.49258 12.72926 16619 ft 375 kts 169°
2026-04-22 17:17 48.46705 12.73469 16127 ft 369 kts 169°
2026-04-22 17:17 48.44171 12.74008 15645 ft 364 kts 169°
2026-04-22 17:18 48.41655 12.74543 15046 ft 362 kts 169°
2026-04-22 17:18 48.39194 12.75161 14489 ft 357 kts 165°
2026-04-22 17:18 48.36786 12.76023 13991 ft 351 kts 163°
2026-04-22 17:18 48.34443 12.76877 13518 ft 346 kts 163°
2026-04-22 17:19 48.29808 12.78560 12604 ft 335 kts 163°
2026-04-22 17:19 48.25359 12.80174 11724 ft 325 kts 163°
2026-04-22 17:20 48.21019 12.81747 10871 ft 316 kts 163°
2026-04-22 17:20 48.16782 12.83280 10034 ft 309 kts 163°
2026-04-22 17:21 48.14676 12.83988 9619 ft 306 kts 165°
2026-04-22 17:21 48.10563 12.85316 8820 ft 299 kts 165°
2026-04-22 17:22 48.06556 12.86610 8029 ft 292 kts 165°
2026-04-22 17:22 48.04572 12.87250 7649 ft 288 kts 166°
2026-04-22 17:22 48.00803 12.88954 6854 ft 278 kts 144°
2026-04-22 17:23 47.99455 12.90893 6442 ft 270 kts 121°
2026-04-22 17:23 47.98412 12.96110 5631 ft 260 kts 95°
2026-04-22 17:23 47.98115 12.98709 5318 ft 256 kts 107°
2026-04-22 17:24 47.97126 13.00902 5030 ft 253 kts 139°
2026-04-22 17:24 47.95602 13.02000 5000 ft 239 kts 164°
2026-04-22 17:24 47.94024 13.02502 4996 ft 223 kts 167°
2026-04-22 17:24 47.92554 13.02946 5000 ft 208 kts 167°
2026-04-22 17:25 47.91169 13.03371 5006 ft 200 kts 166°
2026-04-22 17:25 47.89818 13.03787 5002 ft 196 kts 167°
2026-04-22 17:25 47.88493 13.04192 4999 ft 191 kts 167°
2026-04-22 17:25 47.87196 13.04589 4855 ft 188 kts 166°
2026-04-22 17:26 47.85955 13.04967 4592 ft 177 kts 167°
2026-04-22 17:26 47.84738 13.05340 4380 ft 179 kts 167°
2026-04-22 17:26 47.83545 13.05704 4151 ft 173 kts 167°
2026-04-22 17:26 47.82356 13.06067 3917 ft 171 kts 167°
2026-04-22 17:27 47.81186 13.06424 3698 ft 167 kts 167°
2026-04-22 17:27 47.80072 13.06763 3496 ft 162 kts 167°
2026-04-22 17:27 47.78975 13.07098 3263 ft 160 kts 167°
2026-04-22 17:27 47.77878 13.07432 3053 ft 154 kts 167°
2026-04-22 17:28 47.76817 13.07610 2829 ft 150 kts 185°
2026-04-22 17:28 47.75859 13.07047 2633 ft 147 kts 219°
2026-04-22 17:28 47.75253 13.05812 2461 ft 143 kts 252°
2026-04-22 17:28 47.75181 13.04326 2255 ft 138 kts 283°
2026-04-22 17:29 47.75615 13.03038 2062 ft 135 kts 314°
2026-04-22 17:29 47.76416 13.02225 1876 ft 134 kts 336°
2026-04-22 17:29 47.77294 13.01677 1713 ft 134 kts 335°
2026-04-22 17:29 47.78165 13.01131 1519 ft 134 kts 336°
2026-04-22 17:30 47.78991 13.00608 1410 ft 118 kts 336°
2026-04-22 17:30 47.79633 13.00209 1406 ft 80 kts 339°
2026-04-22 17:30 47.80039 12.99948 1409 ft 48 kts 335°
2026-04-22 17:30 47.80253 12.99804 1409 ft 20 kts 320°
2026-04-22 17:31 47.80268 12.99656 1412 ft 15 kts 246°
2026-04-22 17:31 47.80179 12.99590 1413 ft 15 kts 166°
2026-04-22 17:31 47.80069 12.99660 1414 ft 18 kts 158°
2026-04-22 17:31 47.79944 12.99739 1414 ft 20 kts 157°
2026-04-22 17:32 47.79826 12.99814 1413 ft 9 kts 156°
2026-04-22 17:32 47.79769 12.99784 1417 ft 7 kts 243°
2026-04-22 17:32 47.79756 12.99742 1417 ft 8 kts 242°
2026-04-22 17:32 47.79699 12.99747 1418 ft 9 kts 156°
2026-04-22 17:33 47.79671 12.99765 1418 ft 1 kts 156°
2026-04-22 17:33 47.79646 12.99782 1419 ft 4 kts 154°
2026-04-22 17:33 47.79612 12.99803 1420 ft 4 kts 160°
2026-04-22 17:33 47.79612 12.99840 1419 ft 6 kts 14°
2026-04-22 17:34 47.79630 12.99847 1419 ft 0 kts 16°
2026-04-22 17:34 47.79632 12.99848 1419 ft 0 kts 16°
2026-04-22 17:34 47.79633 12.99848 1419 ft 0 kts 16°